Location: *
(42.0175°N, 9.4056°E)
Time: 09:05:41
(UTC+00:00)

Cosmos 2360 Rocket - Pass Details

Date: 25 August 2019
Orbit: 834 x 844 km, 71.0° (Epoch: 19 September)

Event Time Altitude Azimuth Distance (km) Brightness Sun altitude
Rises 21:36:59 0° 342° (NNW) 3,395 6.4 -31.9°
Reaches altitude 10° 21:39:39 10° 351° (N) 2,458 5.4 -32.1°
Enters shadow 21:43:38 32° 32° (NNE) 1,402 3.5 -32.5°
